Back to catalog

COSMOS 412

AliveMilitaryLEO
NORAD 5211·PAYLOAD·🇷🇺 Russia

Launched May 7, 1971 from Plesetsk Cosmodrome

Loading…

Next Passes (next 24 hours)

TLE

FreshSource: Space-Track

Epoch: Sep 14, 2026, 06:27 UTC

1 05211U 71041B   26257.26883568  .00000001  00000-0  12642-3 0  9999
2 05211  74.0197 347.5288 0035786 321.3328  65.9908 12.39885209744602

Track COSMOS 412 in real time with AllMySat

Download on the App Store